GW0571 Weather Reports


Display with metric or nautical units.
time (UTC)temp
F
wind
direction
speed
MPH
gust
MPH
rain 1hr
in
rain 24hr
in
rain mn
in
humidity
%
barometer
mb
20260503032458 37 19 0.0 1.0 0.00 0.00 0.00 73 1013.5
20260503031956 37 13 0.0 2.0 0.00 0.00 0.00 72 1013.5
20260503031454 37 19 0.0 3.0 0.00 0.00 0.00 72 1013.6
20260503030950 37 0 0.0 3.0 0.00 0.00 0.00 72 1013.5
20260503030446 37 32 0.0 2.0 0.00 0.00 0.00 72 1013.4
20260503025943 38 88 0.0 2.0 0.00 0.00 0.00 72 1013.6
20260503025440 38 216 1.0 2.0 0.00 0.00 0.00 73 1013.6
20260503024938 38 34 0.0 1.0 0.00 0.00 0.00 72 1013.6
20260503024434 38 333 0.0 2.0 0.00 0.00 0.00 71 1013.7
20260503023931 38 38 0.0 2.0 0.00 0.00 0.00 71 1013.6
20260503023428 38 10 1.0 4.0 0.00 0.00 0.00 70 1013.4
20260503022925 39 27 2.0 3.0 0.00 0.00 0.00 70 1013.6
20260503022420 39 13 0.0 5.0 0.00 0.00 0.00 69 1013.5
20260503021916 39 12 3.0 7.0 0.00 0.00 0.00 68 1013.6
20260503021412 39 334 3.0 5.0 0.00 0.00 0.00 68 1013.5
20260503020910 39 342 1.0 3.0 0.00 0.00 0.00 68 1013.7
20260503020408 39 8 2.0 3.0 0.00 0.00 0.00 68 1013.8
20260503015903 39 1 1.0 3.0 0.00 0.00 0.00 67 1013.7
20260503015401 39 315 0.0 5.0 0.00 0.00 0.00 67 1013.7
20260503014856 39 40 2.0 7.0 0.00 0.00 0.00 66 1013.7
20260503014354 39 59 0.0 7.0 0.00 0.00 0.00 67 1013.6
20260503013852 39 31 5.0 7.0 0.00 0.00 0.00 66 1013.6
20260503013348 40 4 2.0 7.0 0.00 0.00 0.00 68 1013.7
20260503012845 40 4 2.0 4.0 0.00 0.00 0.00 69 1013.5
20260503012343 40 180 0.0 3.0 0.00 0.00 0.00 69 1013.6
20260503011840 40 302 1.0 6.0 0.00 0.00 0.00 68 1013.6
20260503011337 40 10 4.0 4.0 0.00 0.00 0.00 67 1013.4
20260503010833 40 349 3.0 7.0 0.00 0.00 0.00 65 1013.6
20260503010331 40 21 2.0 3.0 0.00 0.00 0.00 64 1013.4
20260503005827 40 344 3.0 4.0 0.00 0.00 0.00 63 1013.5
20260503005325 41 137 2.0 3.0 0.00 0.00 0.00 62 1013.3
20260503004821 41 334 0.0 3.0 0.00 0.00 0.00 62 1013.2
20260503004319 41 356 2.0 4.0 0.00 0.00 0.00 61 1013.2
20260503003816 41 296 1.0 3.0 0.00 0.00 0.00 60 1013.2
20260503003313 41 326 2.0 6.0 0.00 0.00 0.00 60 1013.2
20260503002810 41 3 2.0 3.0 0.00 0.00 0.00 58 1013.0
20260503002307 41 19 3.0 5.0 0.00 0.00 0.00 58 1013.0
20260503001803 41 21 2.0 2.0 0.00 0.00 0.00 58 1013.1
20260503001259 41 336 1.0 3.0 0.00 0.00 0.00 57 1013.0
20260503000757 41 345 2.0 4.0 0.00 0.00 0.00 57 1013.1
20260503000254 41 21 1.0 5.0 0.00 0.00 0.00 58 1012.9
20260502235751 42 39 1.0 4.0 0.00 0.00 0.00 58 1013.0
20260502235249 42 358 1.0 3.0 0.00 0.00 0.00 56 1013.2
20260502234745 42 282 1.0 4.0 0.00 0.00 0.00 55 1013.0
20260502234242 42 296 0.0 4.0 0.00 0.00 0.00 55 1013.0
20260502233738 42 6 0.0 3.0 0.00 0.00 0.00 57 1013.1
20260502233235 42 22 0.0 3.0 0.00 0.00 0.00 55 1012.8
20260502232731 43 344 1.0 4.0 0.00 0.00 0.00 54 1012.9
20260502232228 43 0 2.0 3.0 0.00 0.00 0.00 54 1012.8
20260502231725 43 8 0.0 7.0 0.00 0.00 0.00 54 1012.7
20260502231223 43 4 3.0 7.0 0.00 0.00 0.00 54 1012.8
20260502230721 43 347 0.0 7.0 0.00 0.00 0.00 54 1012.7
20260502230219 43 345 1.0 3.0 0.00 0.00 0.00 53 1012.5
20260502225714 43 342 2.0 4.0 0.00 0.00 0.00 54 1012.6
20260502225212 43 313 1.0 3.0 0.00 0.00 0.00 53 1012.6
20260502224708 44 286 1.0 9.0 0.00 0.00 0.00 56 1012.5
20260502224205 44 312 0.0 3.0 0.00 0.00 0.00 55 1012.3
20260502223702 44 243 0.0 3.0 0.00 0.00 0.00 58 1012.5
20260502223201 44 16 2.0 4.0 0.00 0.00 0.00 55 1012.5
20260502222658 43 246 3.0 4.0 0.00 0.00 0.00 57 1012.5
20260502222155 43 206 2.0 3.0 0.00 0.00 0.00 58 1012.5
20260502221650 43 193 1.0 2.0 0.00 0.00 0.00 58 1012.6
20260502221147 43 217 4.0 7.0 0.00 0.00 0.00 57 1012.6
20260502220643 43 19 1.0 3.0 0.00 0.00 0.00 58 1012.6
20260502220139 43 29 2.0 3.0 0.00 0.00 0.00 58 1012.5
20260502215637 43 247 2.0 5.0 0.00 0.00 0.00 57 1012.7
20260502215133 43 229 2.0 3.0 0.00 0.00 0.00 59 1012.5
20260502214631 43 336 0.0 3.0 0.00 0.00 0.00 59 1012.6
20260502214128 43 9 2.0 6.0 0.00 0.00 0.00 61 1012.6
20260502213625 42 274 1.0 7.0 0.00 0.00 0.00 59 1012.8
20260502213122 43 333 1.0 7.0 0.00 0.00 0.00 59 1012.6
20260502212621 43 318 0.0 4.0 0.00 0.00 0.00 55 1012.5
20260502212119 43 258 4.0 7.0 0.00 0.00 0.00 54 1012.5
20260502211614 44 21 1.0 6.0 0.00 0.00 0.00 56 1012.6
20260502211112 43 215 4.0 8.0 0.00 0.00 0.00 53 1012.4
20260502210609 44 0 1.0 5.0 0.00 0.00 0.00 53 1012.5
20260502210106 44 231 1.0 3.0 0.00 0.00 0.00 53 1012.3
20260502205602 44 279 2.0 3.0 0.00 0.00 0.00 53 1012.6
20260502205100 44 59 2.0 3.0 0.00 0.00 0.00 51 1012.3
20260502204556 44 112 2.0 5.0 0.00 0.00 0.00 51 1012.4
20260502204054 44 269 1.0 9.0 0.00 0.00 0.00 53 1012.6
20260502203551 44 233 6.0 7.0 0.00 0.00 0.00 52 1012.5
20260502203048 44 264 1.0 4.0 0.00 0.00 0.00 52 1012.3
20260502202544 44 289 2.0 3.0 0.00 0.00 0.00 52 1012.8
20260502202042 44 321 2.0 3.0 0.00 0.00 0.00 50 1012.6
20260502201538 44 7 2.0 4.0 0.00 0.00 0.00 50 1012.5
20260502201034 44 25 4.0 5.0 0.00 0.00 0.00 49 1012.4
20260502200530 44 3 2.0 6.0 0.00 0.00 0.00 50 1012.6
20260502200029 45 339 2.0 4.0 0.00 0.00 0.00 50 1012.8
20260502195526 45 359 3.0 6.0 0.00 0.00 0.00 49 1012.6
20260502195021 45 4 2.0 2.0 0.00 0.00 0.00 49 1012.7
20260502194519 45 357 2.0 3.0 0.00 0.00 0.00 49 1012.7
20260502194014 45 5 3.0 4.0 0.00 0.00 0.00 48 1013.0
20260502193512 45 342 0.0 7.0 0.00 0.00 0.00 48 1012.9
20260502193009 45 221 6.0 12.0 0.00 0.00 0.00 47 1013.1
20260502192505 45 226 4.0 8.0 0.00 0.00 0.00 48 1013.0
20260502192002 45 230 5.0 10.0 0.00 0.00 0.00 46 1013.0
20260502191459 45 244 8.0 8.0 0.00 0.00 0.00 47 1013.0
20260502190957 45 260 3.0 7.0 0.00 0.00 0.00 45 1013.0
20260502190454 45 331 2.0 6.0 0.00 0.00 0.00 47 1013.1
20260502185950 45 231 6.0 11.0 0.00 0.00 0.00 45 1013.2
20260502185446 46 169 3.0 9.0 0.00 0.00 0.00 48 1013.1
20260502184943 46 241 2.0 7.0 0.00 0.00 0.00 43 1013.2
20260502184438 45 239 3.0 9.0 0.00 0.00 0.00 45 1013.3
20260502183935 46 328 2.0 10.0 0.00 0.00 0.00 47 1013.1
20260502183431 46 196 2.0 5.0 0.00 0.00 0.00 45 1013.3
20260502182926 46 141 4.0 8.0 0.00 0.00 0.00 46 1013.3
20260502182422 46 334 2.0 8.0 0.00 0.00 0.00 46 1013.1
20260502181918 45 223 5.0 12.0 0.00 0.00 0.00 45 1013.3
20260502181417 46 234 7.0 14.0 0.00 0.00 0.00 45 1013.2
20260502180915 46 266 2.0 6.0 0.00 0.00 0.00 45 1013.3
20260502180412 46 249 9.0 11.0 0.00 0.00 0.00 46 1013.3
20260502170331 45 327 3.0 8.0 0.00 0.00 0.00 47 1013.1
20260502164318 46 47 4.0 6.0 0.00 0.00 0.00 44 1013.1
20260502163814 46 152 2.0 15.0 0.00 0.00 0.00 45 1013.4
20260502163310 46 325 3.0 9.0 0.00 0.00 0.00 45 1013.2
20260502162808 46 359 3.0 6.0 0.00 0.00 0.00 44 1013.2
20260502162305 46 48 2.0 9.0 0.00 0.00 0.00 40 1013.3
20260502161801 46 295 5.0 9.0 0.00 0.00 0.00 44 1013.5
20260502161257 46 9 3.0 7.0 0.00 0.00 0.00 40 1013.4
20260502160756 45 0 6.0 13.0 0.00 0.00 0.00 41 1013.2
20260502160254 47 355 5.0 5.0 0.00 0.00 0.00 46 1013.2
20260502152224 45 260 4.0 11.0 0.00 0.00 0.00 42 1013.5
20260502151721 45 292 2.0 14.0 0.00 0.00 0.00 44 1013.4
20260502151218 45 343 5.0 17.0 0.00 0.00 0.00 44 1013.5
20260502150715 45 276 4.0 17.0 0.00 0.00 0.00 43 1013.5
20260502150212 44 10 4.0 9.0 0.00 0.00 0.00 43 1013.5
20260502130601 42 352 3.0 6.0 0.00 0.00 0.00 68 1013.7
20260502123543 40 1 3.0 6.0 0.00 0.00 0.00 78 1013.7
20260502123040 39 293 3.0 10.0 0.00 0.00 0.00 77 1013.7
20260502122537 39 328 3.0 8.0 0.00 0.00 0.00 78 1013.7
20260502122034 40 304 4.0 9.0 0.00 0.00 0.00 82 1013.8
20260502121532 40 337 1.0 5.0 0.00 0.00 0.00 83 1013.8
20260502121029 40 15 4.0 8.0 0.00 0.00 0.00 84 1013.6
20260502120525 39 324 3.0 5.0 0.00 0.00 0.00 83 1013.7
20260502115520 39 348 3.0 4.0 0.00 0.00 0.00 86 1013.6
20260502115015 40 14 2.0 5.0 0.00 0.00 0.00 87 1013.7
20260502114513 39 352 2.0 5.0 0.00 0.00 0.00 88 1013.7
20260502114009 39 333 2.0 5.0 0.00 0.00 0.00 89 1013.8
20260502113507 39 46 6.0 6.0 0.00 0.00 0.00 90 1013.9
20260502113005 38 318 0.0 4.0 0.00 0.00 0.00 92 1013.7
20260502112502 38 228 0.0 4.0 0.00 0.00 0.00 93 1013.6
20260502112000 38 94 0.0 4.0 0.00 0.00 0.00 94 1013.6
20260502111457 38 24 2.0 3.0 0.00 0.00 0.00 95 1013.7
20260502110954 38 231 0.0 3.0 0.00 0.00 0.00 95 1013.5
20260502110452 38 246 0.0 1.0 0.00 0.00 0.00 95 1013.6
20260502105949 38 52 1.0 2.0 0.00 0.00 0.00 95 1013.4
20260502105447 37 96 1.0 3.0 0.00 0.00 0.00 95 1013.4
20260502104944 37 107 3.0 3.0 0.00 0.00 0.00 95 1013.3
20260502104441 37 82 2.0 3.0 0.00 0.00 0.00 95 1013.2
20260502103938 37 105 1.0 3.0 0.00 0.00 0.00 94 1013.2
20260502103436 37 95 1.0 2.0 0.00 0.00 0.00 94 1013.2
20260502102933 38 114 2.0 3.0 0.00 0.00 0.00 94 1013.2
20260502102430 38 76 2.0 2.0 0.00 0.00 0.00 94 1013.2
20260502101927 38 19 0.0 2.0 0.00 0.00 0.00 94 1013.0
20260502101425 38 77 0.0 2.0 0.00 0.00 0.00 94 1013.3
20260502100923 38 19 2.0 3.0 0.00 0.00 0.00 94 1013.1
20260502100422 38 307 0.0 3.0 0.00 0.00 0.00 94 1013.1
20260502091356 37 151 0.0 2.0 0.00 0.00 0.00 95 1012.6
20260502090853 38 327 0.0 2.0 0.00 0.00 0.00 95 1012.7
20260502090350 38 206 2.0 2.0 0.00 0.00 0.00 95 1012.7
20260502071245 38 44 0.0 0.0 0.00 0.00 0.00 96 1012.1
20260502070743 38 44 0.0 1.0 0.00 0.00 0.00 96 1012.0
20260502070240 38 293 0.0 3.0 0.00 0.00 0.00 95 1012.2
20260502065739 38 349 1.0 2.0 0.00 0.00 0.00 95 1012.0
20260502065236 38 22 0.0 2.0 0.00 0.00 0.00 95 1012.2
20260502064735 38 309 1.0 3.0 0.00 0.00 0.00 95 1012.2
20260502064232 38 334 1.0 4.0 0.00 0.00 0.00 95 1011.8
20260502063729 38 269 0.0 2.0 0.00 0.00 0.00 95 1012.1
20260502063227 38 27 2.0 5.0 0.00 0.00 0.00 95 1011.7
20260502062724 38 341 0.0 5.0 0.00 0.00 0.00 95 1012.1
20260502062222 38 8 3.0 5.0 0.00 0.00 0.00 95 1012.3
20260502061720 38 37 1.0 3.0 0.00 0.00 0.00 96 1012.3
20260502061217 39 349 1.0 3.0 0.00 0.00 0.00 96 1012.4
20260502060712 39 34 0.0 3.0 0.00 0.00 0.00 96 1012.4
20260502060209 39 357 3.0 3.0 0.00 0.00 0.00 96 1012.1
20260502055707 39 327 2.0 5.0 0.00 0.00 0.00 96 1012.0
20260502055204 39 317 2.0 5.0 0.00 0.00 0.00 96 1012.1
20260502054704 39 325 0.0 3.0 0.00 0.00 0.00 96 1012.1
20260502054200 39 269 0.0 3.0 0.00 0.00 0.00 96 1012.0
20260502053658 39 300 1.0 5.0 0.00 0.00 0.00 96 1011.8
20260502053154 39 339 2.0 5.0 0.00 0.00 0.00 96 1012.1
20260502052653 39 310 2.0 4.0 0.00 0.00 0.00 96 1012.0
20260502052151 39 336 2.0 4.0 0.00 0.00 0.00 96 1012.0
20260502051648 39 277 4.0 7.0 0.00 0.00 0.00 96 1012.2
20260502051146 39 260 2.0 3.0 0.00 0.00 0.00 96 1012.0
20260502050642 39 345 2.0 4.0 0.00 0.00 0.00 95 1011.8
20260502050139 39 356 3.0 5.0 0.00 0.00 0.00 95 1012.2
20260502045636 39 291 3.0 5.0 0.00 0.00 0.00 96 1012.2
20260502045133 40 304 2.0 5.0 0.00 0.00 0.00 96 1012.2
20260502044629 40 345 5.0 7.0 0.00 0.00 0.00 96 1012.4
20260502044126 41 354 2.0 3.0 0.00 0.00 0.00 96 1012.5
20260502043624 41 250 4.0 6.0 0.00 0.00 0.00 96 1012.4
20260502043121 41 186 2.0 3.0 0.00 0.00 0.00 96 1012.2
20260502042615 41 201 2.0 5.0 0.00 0.00 0.00 96 1012.0
20260502042112 41 230 4.0 5.0 0.00 0.00 0.00 96 1012.2
20260502041610 41 241 0.0 2.0 0.00 0.00 0.00 96 1012.1
20260502041107 41 240 3.0 3.0 0.00 0.00 0.00 96 1011.8
20260502040603 41 146 1.0 5.0 0.00 0.00 0.00 96 1011.7
20260502040101 41 231 2.0 5.0 0.00 0.16 0.16 96 1012.0
20260502035556 41 208 2.0 4.0 0.00 0.16 0.16 96 1011.8
20260502035054 41 242 2.0 5.0 0.00 0.16 0.16 96 1011.8
20260502034552 41 200 2.0 6.0 0.00 0.16 0.16 96 1011.8
20260502034050 41 43 0.0 6.0 0.00 0.16 0.16 96 1011.7
20260502033548 41 209 3.0 7.0 0.02 0.16 0.16 96 1011.7
20260502033045 41 235 1.0 2.0 0.00 0.15 0.15 96 1011.7